Regional Weather Roundup
Issued by NWS Wakefield, VA

Home | Current Version | Previous Version | Graphics & Text | Print | Product List | Glossary On
Versions: 1 2 3 4 5 6 7 8 9 10 11 12 13 14 15 16 17 18 19 20 21 22 23 24 25 26 27 28 29 30 31 32 33 34 35 36 37 38 39 40 41 42 43 44 45 46 47 48 49 50
000
ASUS41 KAKQ 282010
RWRAKQ

REGIONAL WEATHER ROUNDUP
NATIONAL WEATHER SERVICE WAKEFIELD VA
400 PM EDT MON JUL 28 2014

Note: "fair" indicates few or no clouds below 12,000 feet with no
significant weather and/or obstructions to visibility. * = Denotes
station may not report precipitation (e.g., rain,snow,etc.),
thunder or fog.

VAZ042-051-052>054-056-282100-
NORTHERN VIRGINIA

CITY           SKY/WX    TMP DP  RH WIND       PRES   REMARKS
WASH NATIONAL  MOSUNNY   86  56  35 W13G28    29.69S
DULLES         PTSUNNY   79  56  45 W17G25    29.70S
FORT BELVOIR   MOSUNNY   83  58  43 W10       29.70S
QUANTICO       MOSUNNY   85  56  37 W13       29.70
FREDERICKSBRG* PTSUNNY   84  56  37 W16       29.70R
STAFFORD*      SUNNY     82  55  39 W14G20    29.74S
WARRENTON      MOSUNNY   84  66  54 W7G18     29.72R
CULPEPER*      MOSUNNY  N/A N/A N/A W9        29.72S
MANASSAS*      MOSUNNY   81  59  47 W14G23    29.71R
LEESBURG*      CLOUDY    79  61  53 W14G24    29.72R
WINCHESTER     PTSUNNY   77  55  47 W20G31    29.73R
$$

VAZ048-049-060>072-079>083-282100-
CENTRAL AND SOUTH CENTRAL VIRGINIA...AND NORTH CENTRAL NORTH CAROLINA

CITY           SKY/WX    TMP DP  RH WIND       PRES   REMARKS
RICHMOND       MOSUNNY   88  54  31 W17G25    29.73R
CHESTERFIELD*  PTCLDY    86  55  35 W16G22    29.76R
HANOVER        SUNNY     86  54  33 W20G28    29.74S
TAPPAHANNOCK*  MOSUNNY   87  54  32 W8G17     29.70S
CHARLOTTSVILLE MOSUNNY   77  55  46 NW10      29.76S
ORANGE*        PTSUNNY   81  54  39 W18G25    29.76S
LOUISA*        CLOUDY    79  61  53 W7        29.74S
FARMVILLE*     MOSUNNY   84  54  34 W6G18     29.76S
SOUTH HILL*    PTSUNNY   84  61  45 W6        29.84S
ROANOKE RAPIDS NOT AVBL
RALEIGH        PTSUNNY   84  61  45 NW6       29.80S
$$

VAZ088>098-282100-
SOUTHEAST VIRGINIA

CITY           SKY/WX    TMP DP  RH WIND       PRES   REMARKS
NORFOLK        SUNNY     87  61  41 W9G21     29.71S
VIRGINIA BEACH MOSUNNY   88  63  43 SW17G23   29.71R
NORFOLK NAVAL  PTSUNNY   86  63  45 W14G21    29.73R
WEST POINT*    PTSUNNY   85  60  43 W9        29.72S
NEWPORT NEWS   CLOUDY    89  63  41 W16G24    29.71S
LANGLEY AFB    MOSUNNY   86  62  45 SW21G26   29.71R
FORT EUSTIS    MOSUNNY   87  63  45 W18       29.70S
WILLIAMSBURG*  MOSUNNY   90  63  40 W15G22    29.73R
FRANKLIN*      SUNNY     86  61  42 W12G18    29.75R
WAKEFIELD      PTSUNNY   85  61  44 W7G22     29.74R
$$

VAZ020-022-025-037-045-282100-
WESTERN AND SOUTHWEST VIRGINIA

CITY           SKY/WX    TMP DP  RH WIND       PRES   REMARKS
STAUNTON*      MOSUNNY   77  53  43 NW16G25   29.82R
HOT SPRINGS VA CLOUDY    61  50  67 W15G25    29.94R
LYNCHBURG      PTSUNNY   77  57  50 W8G18     29.83S
DANVILLE       CLOUDY    83  58  42 NW9       29.82S
MARTINSVILLE   PTSUNNY   84  54  35 NW10G21   29.87R
ROANOKE        PTSUNNY   78  55  44 W21G32    29.86R
BLACKSBURG     CLOUDY    72  61  68 NW10G20     N/A
DUBLIN*        PTSUNNY   74  58  56 W8        29.93R
MARION*        CLOUDY   N/A N/A N/A W13       29.98R
HILLSVILLE*    CLOUDY    71  54  55 NW16G30   29.94S
RICHLANDS*     CLOUDY    70  60  69 W8        29.98R
WISE*          CLOUDY    68  55  64 W8        30.02R
ABINGDON*      CLOUDY    72  59  62 NW6       29.97R
$$

MDZ021>025-VAZ099-100-282100-
SOUTHERN MARYLAND AND THE DELMARVA PENINSULA

CITY           SKY/WX    TMP DP  RH WIND       PRES   REMARKS
PATUXENT RIVER MOSUNNY   86  55  34 W15       29.67S
BAY BRIDGE APT   N/A     82  55  39 W17G23    29.66R
LEONARDTOWN    MOSUNNY   82  54  36 W14G20    29.70S
DOVER          MOSUNNY   84  61  44 W20G26    29.62S
GEORGETOWN     PTSUNNY   84  59  42 VRB6G16   29.65S
EASTON         PTSUNNY   84  61  45 W9        29.70R
CAMBRIDGE      MOSUNNY   84  54  34 W12G20    29.66S
SALISBURY      PTSUNNY   86  59  39 W14G21    29.66S
OCEAN CITY     CLOUDY    84  60  44 W14G23    29.66R
WALLOPS ISLAND PTSUNNY   86  62  44 NW12      29.68R
ACCOMACK*        N/A     82  63  51 NW12      29.69S
$$

NCZ012>017-030>032-282100-
EASTERN NORTH CAROLINA

CITY           SKY/WX    TMP DP  RH WIND       PRES   REMARKS
ELIZABETH CITY MOSUNNY   87  65  47 W15G24    29.74S
AHOSKIE*       SUNNY     85  64  48 CALM      29.77S
EDENTON*       MOSUNNY   87  66  48 W12G18    29.76S
CURRITUCK*     MOSUNNY   89  60  36 W14G21    29.74S
KILL DEVIL HLS SUNNY     87  67  51 W12G18    29.73S
MANTEO         NOT AVBL
CAPE HATTERAS  PTSUNNY   86  78  77 SW10G17   29.77S HX  98
GOLDSBORO      SUNNY     90  68  48 W14       29.75F
WASHINGTON     SUNNY     88  69  52 W9        29.77S
GREENVILLE     MOSUNNY   88  68  51 NW9       29.80S
NEW BERN       MOSUNNY   91  70  49 VRB3      29.77F HX  96
WILMINGTON     PTSUNNY   89  77  67 SW9       29.77F HX 101
$$

VAZ048-282100-
ELSEWHERE

CITY           SKY/WX    TMP DP  RH WIND       PRES   REMARKS
HARRISBURG PA  PTSUNNY   79  60  52 W12G22    29.63R
BALTIMORE      PTSUNNY   84  56  38 W17G28    29.65R
ANNAPOLIS      MOSUNNY   83  57  41 W12G25    29.65S
ANDREWS AFB      N/A     82  56  39 W18G31    29.68S
WILMINGTON DE  PTSUNNY   82  61  48 W16G22    29.63R
PHILADELPHIA   PTSUNNY   83  59  44 W22G30    29.60S
WILDWOOD NJ*   MOSUNNY   82  61  47 W14G21    29.65R
ATLANTIC CITY  PTSUNNY   82  60  47 W13G23    29.60S
HENDERSON NC   SUNNY     85  54  34 W8        29.80S
GREENSBORO     MOSUNNY   85  56  37 NW13      29.83S
ROCKY MOUNT    MOSUNNY   88  63  43 W9        29.78S
FAYETTEVILLE   MOSUNNY   96  63  33 NW13G20   29.76F HX  97
CHARLOTTE      MOSUNNY   88  60  38 NW9G21    29.84S
$$

VAZ100-282100-
MARINE

STATION/POSITION TIME  TEMP    WIND        PRES    WAVE   SWELL
                       AIR SEA DIR/SP/G            HT/PER HT/PER
                 (UTC) (F)     (DEG/KT/KT) (MB)    (FT/S) (FT/S)
44066 TX TWR #4  2000   76 75  230/ 14/ 17 1001.9R   5/ 7   2/ 9
CAPE MAY NJ      2000   80 80  290/ 12/ 15 1003.1S
LEWES DE         2000   81 73  290/ 15/ 19 1003.5S
15NM E FENWICK I 2000   79 74              1004.1R   3/ 6
OCEAN-CITY-INLET 2000   83 72  280/ 13/ 18 1003.8R
WACHAPREAGUE VA  2000   86 83  300/  1/  5 1005.3R
THOMAS POINT MD  2000   80 79  280/ 21/ 24 1004.6S
GOOSES REEF MD   2000   81     300/ 17/ 21 1005.0S
COVE POINT MD    2000   82     290/ 16/ 23 1004.6R
SOLOMONS ISLAND  2000      80                N/A
BISHOPS HEAD MD  2000   82 82  290/ 14/ 15 1004.6R
PINEY POINT MD   2000          330/ 15/ 16   N/A
POTOMAC MD       2000   81     320/ 16/ 17 1004.3R
CAMBRIDGE MD     2000   83 80  280/ 10/ 18 1004.1S
LEWISETTA VA     2000   83 81  320/ 11/ 13 1004.9F
RAPPAHANNOCK LGT 2000          250/ 12/ 13 1005.9F
STINGRAY PT      2000   83     290/ 16/ 21 1006.2R
YORK RVR RNG VA  2000   85     280/ 16/ 18 1005.0S
YORKTOWN VA      2000   85 80  260/ 15/ 20 1005.5R
JAMESTOWN VA     2000   83     300/ 17/ 21   N/A
DOMINION TERM VA 2000   84     290/ 15/ 18 1006.3R
KIPTOPEKE VA     2000      82  280/ 12/ 16   N/A
CHES BAY BRIDGE  2000   84 79  250/ 17/ 19 1005.4S
CAPE HENRY VA    2000   86     260/ 12/ 15 1004.8R
WILLOUBY STN VA  2000          270/ 20/ 22 1005.2R
S CRANEY ISL VA  2000          250/ 10/ 17 1006.4R
CAPE HENRY BUOY  2000      78                N/A     3/ 6
1ST LANDING BUOY 2000   83     280/ 16/ 17 1005.9R
CAPE CHARLES BUO 2000      75                N/A     3/ 9
OFFSHORE WE BUOY 2000      79                N/A     3/ 6
64NM E OF VA BCH 2000   81 79  240/ 16/ 17 1005.9R   4/ 7   2/ 9
DUCK PIER NC     2000   85 60  250/ 16/ 19 1006.3S
44056 DUCK FRF   2000                        N/A     2/ 8
OREGON INLET NC  2000   88 82  270/ 11/ 19 1007.2R
HATTERAS NC      2000   84 81  220/  9/ 14 1008.6S
DIAMOND SHLS NC  2000          VRB 16/ 17  1008.0F   5/ 7   2/10
CAPE LOOKOUT NC  1900   84     230/ 12/ 15 1008.4F
$$



USA.gov is the U.S. government's official web portal to all federal, state and local government web resources and services.